Manhattan, KS

12:59 AM CST on December 07, 2019 (GMT -0600)
Manhattan Regional

Weather History for KMHK - October, 2019

Change the Weather History Date:

Thursday, October 24, 2019

  Actual Average Record
Temperature  
Mean Temperature 45 °F 52 °F  
Max Temperature 50 °F 65 °F 84 °F (2011)
Min Temperature 40 °F 39 °F 21 °F (1999)
Degree Days  
Heating Degree Days 20 13  
Month to date heating degree days 235 226  
Since 1 July heating degree days 236 296  
Cooling Degree Days 0 0  
Month to date cooling degree days 15 21  
Year to date cooling degree days 1610 1358  
Moisture  
Dew Point 32 °F    
Average Humidity 62    
Maximum Humidity 77    
Minimum Humidity 44    
Precipitation  
Precipitation 0.00 in 0.06 in 0.44 in (2002)
Month to date precipitation 2.84 1.79  
Year to date precipitation 40.82 29.50  
Sea Level Pressure  
Sea Level Pressure 30.36 in    
Wind  
Wind Speed 9 mph ()    
Max Wind Speed 18 mph    
Max Gust Speed 26 mph    
Visibility 10.0 miles    
Events      
T = Trace of Precipitation, MM = Missing Value Source: Averaged Metar Reports

Daily Weather History Graph

Daily Weather History Graph

Search for Another Location

Airport or City:

Astronomy

Oct. 24, 2019 Rise Set
Actual Time 7:45 AM CDT 6:35 PM CDT
Civil Twilight 7:18 AM CDT 7:03 PM CDT
Nautical Twilight 6:46 AM CDT 7:34 PM CDT
Astronomical Twilight 6:15 AM CDT 8:05 PM CDT
Moon 3:19 AM CDT (10/24) 5:01 PM CDT (10/24)
Length of Visible Light 11h 44m
Length of Day
10h 50m
Waning Crescent, 16% of the Moon is Illuminated
Oct 24
Waning Crescent
Oct 27
New
Nov 4
First Quarter
Nov 12
Full
Nov 19
Last Quarter

Hourly Weather History & Observations

Time (CDT) Temp. Windchill Dew Point Humidity Pressure Visibility Wind Dir Wind Speed Gust Speed Precip Events Conditions
12:52 AM 48.9 °F - 41.0 °F 74% 30.23 in 10.0 mi NNE 12.7 mph 21.9 mph N/A   Scattered Clouds
1:52 AM 48.0 °F - 39.0 °F 71% 30.23 in 10.0 mi NNE 13.8 mph 24.2 mph N/A   Overcast
2:52 AM 46.9 °F - 37.9 °F 71% 30.25 in 10.0 mi NNE 11.5 mph 21.9 mph N/A   Overcast
3:01 AM 46.9 °F - 37.9 °F 71% 30.25 in 10.0 mi NNE 9.2 mph 20.7 mph N/A   Overcast
3:39 AM 45.0 °F 39.3 °F 37.9 °F 76% 30.28 in 10.0 mi NNE 11.5 mph 19.6 mph N/A   Overcast
4:52 AM 43.0 °F 37.7 °F 34.0 °F 71% 30.32 in 10.0 mi NNE 9.2 mph 18.4 mph N/A   Overcast
5:06 AM 42.1 °F 35.2 °F 34.0 °F 73% 30.32 in 10.0 mi North 12.7 mph 21.9 mph N/A   Overcast
5:52 AM 42.1 °F 37.1 °F 32.0 °F 67% 30.36 in 10.0 mi NNE 8.1 mph 20.7 mph N/A   Overcast
6:52 AM 42.1 °F 36.6 °F 30.9 °F 65% 30.37 in 10.0 mi NNE 9.2 mph 16.1 mph N/A   Mostly Cloudy
7:02 AM 41.0 °F 35.8 °F 30.9 °F 67% 30.36 in 10.0 mi NNE 8.1 mph - N/A   Scattered Clouds
7:52 AM 41.0 °F 38.0 °F 30.9 °F 67% 30.39 in 10.0 mi North 4.6 mph - N/A   Clear
8:52 AM 41.0 °F 34.7 °F 28.0 °F 60% 30.42 in 10.0 mi NNE 10.4 mph 17.3 mph N/A   Scattered Clouds
9:52 AM 44.1 °F 39.5 °F 28.9 °F 55% 30.43 in 10.0 mi North 8.1 mph 20.7 mph N/A   Clear
10:52 AM 44.1 °F 38.6 °F 28.0 °F 53% 30.44 in 10.0 mi NNE 10.4 mph - N/A   Clear
11:52 AM 46.9 °F - 28.9 °F 50% 30.43 in 10.0 mi NNE 9.2 mph 23.0 mph N/A   Clear
12:52 PM 48.0 °F - 28.9 °F 48% 30.42 in 10.0 mi North 8.1 mph 19.6 mph N/A   Clear
1:52 PM 48.9 °F - 28.9 °F 46% 30.37 in 10.0 mi NNE 12.7 mph 19.6 mph N/A   Clear
2:52 PM 48.9 °F - 28.0 °F 44% 30.34 in 10.0 mi NE 16.1 mph 23.0 mph N/A   Clear
3:52 PM 48.0 °F - 28.9 °F 48% 30.35 in 10.0 mi NE 11.5 mph 18.4 mph N/A   Clear
4:52 PM 48.0 °F - 28.0 °F 46% 30.38 in 10.0 mi NNE 9.2 mph - N/A   Clear
5:52 PM 46.0 °F 41.4 °F 28.9 °F 51% 30.38 in 10.0 mi NNE 9.2 mph - N/A   Clear
6:52 PM 44.1 °F 40.1 °F 30.9 °F 60% 30.40 in 10.0 mi NE 6.9 mph - N/A   Clear
7:52 PM 43.0 °F 39.5 °F 30.0 °F 60% 30.41 in 10.0 mi NE 5.8 mph - N/A   Clear
8:52 PM 43.0 °F 40.3 °F 32.0 °F 65% 30.40 in 10.0 mi NNE 4.6 mph - N/A   Clear
9:52 PM 42.1 °F 38.4 °F 32.0 °F 67% 30.40 in 10.0 mi NNE 5.8 mph - N/A   Clear
10:52 PM 42.1 °F 39.2 °F 32.0 °F 67% 30.40 in 10.0 mi North 4.6 mph - N/A   Clear
11:52 PM 41.0 °F - 33.1 °F 73% 30.41 in 10.0 mi Calm Calm - N/A   Clear